This demonstration page uses our WeatherBlox Daily Observations layout. Learn more.

Left ArrowRight Arrow

Hourly Observations for March 25, 2020

Temp ( °F °C ) Dew Point ( °F °C ) Humidity (%) Winds ( mph kmh ) Pressure ( in mb ) Visibility ( mi km ) Precip ( " mm )
12:51 am 00:51 Clear 47 8.3 39 3.9 74 74 Calm 29.97 1015 10 16 0.00 0.00
1:51 am 01:51 Clear 46 7.8 38 3.3 73 73 E 5 7 29.96 1015 10 16 0.00 0.00
2:51 am 02:51 Clear 45 7.2 38 3.3 77 77 SE 5 7 29.94 1014 10 16 0.00 0.00
3:51 am 03:51 Clear 42 5.6 37 2.8 82 82 Calm 29.93 1014 10 16 0.00 0.00
4:51 am 04:51 Clear 42 5.6 36 2.2 79 79 Calm 29.94 1014 10 16 0.00 0.00
5:51 am 05:51 Clear 39 3.9 35 1.7 86 86 S 3 6 29.96 1014 10 16 0.00 0.00
6:51 am 06:51 Sunny 44 6.7 37 2.8 76 76 Calm 29.97 1015 10 16 0.00 0.00
7:51 am 07:51 Sunny 51 10.6 38 3.3 61 61 Calm 29.98 1015 10 16 0.00 0.00
8:51 am 08:51 Sunny 57 13.9 38 3.3 49 49 Calm 29.98 1015 10 16 0.00 0.00
9:51 am 09:51 Sunny 64 17.8 38 3.3 38 38 ESE 3 6 29.96 1015 10 16 0.00 0.00
10:51 am 10:51 Sunny 69 20.6 34 1.1 27 27 SE 7 11 29.94 1014 10 16 0.00 0.00
11:51 am 11:51 Sunny 72 22.2 34 1.1 25 25 E 3 6 29.91 1013 10 16 0.00 0.00
12:51 pm 12:51 Sunny 76 24.4 32 0 20 20 VRB 5 7 29.87 1012 10 16 0.00 0.00
1:51 pm 13:51 Sunny 77 25 32 0 19 19 VRB 5 7 29.83 1010 10 16 0.00 0.00
2:51 pm 14:51 Sunny 80 26.7 32 0 17 17 undefined N/A 29.80 1009 10 16 0.00 0.00
3:51 pm 15:51 Sunny 80 26.7 33 0.6 18 18 NNW 7 11 29.79 1009 10 16 0.00 0.00
4:51 pm 16:51 Sunny 77 25 33 0.6 20 20 NNW 7 11 29.77 1008 10 16 0.00 0.00
5:51 pm 17:51 Sunny 76 24.4 34 1.1 22 22 NW 9 15 29.79 1009 10 16 0.00 0.00
6:51 pm 18:51 Clear 70 21.1 35 1.7 28 28 NW 10 17 29.79 1009 10 16 0.00 0.00
7:51 pm 19:51 Clear 68 20 36 2.2 31 31 WNW 8 13 29.78 1008 10 16 0.00 0.00
8:51 pm 20:51 Clear 67 19.4 38 3.3 35 35 WSW 7 11 29.79 1009 10 16 0.00 0.00
9:51 pm 21:51 Clear 63 17.2 39 3.9 41 41 SE 3 6 29.79 1009 10 16 0.00 0.00
10:51 pm 22:51 Clear 62 16.7 40 4.4 44 44 E 7 11 29.77 1008 10 16 0.00 0.00
11:51 pm 23:51 Clear 61 16.1 40 4.4 46 46 E 3 6 29.75 1007 10 16 0.00 0.00

Powered by AerisWeather